Location: Borderline Observatory
(42.7345°N, 72.8696°W)
Time: 22:31:50
(UTC-04:00)

Daily predictions for brighter satellites

Satellite Brightness Start Highest point End
(mag) Time Altitude Azimuth Time Altitude Azimuth Time Altitude Azimuth
OPS 8737 4.5 19:09:55 10° SW 19:13:41 90° ENE 19:17:02 10° NE
Cosmos 1378 3.2 19:13:19 10° N 19:17:04 56° E 19:20:46 10° SSE
Envisat 4.5 19:18:35 10° ESE 19:21:58 18° ENE 19:25:22 10° NNE
Geosat 4.0 19:17:12 10° SE 19:22:11 68° ENE 19:27:12 10° NNW
BREEZE M DEB (TANK) 3.6 19:12:40 10° WSW 19:22:29 57° NNW 19:25:36 10° NE
ALOS 2.3 19:19:54 10° SSE 19:24:33 84° ENE 19:29:15 10° NNW
ATLAS 2AS CENTAUR R/B 4.4 19:19:36 10° NNW 19:25:53 24° NNE 19:31:56 10° ENE
Cosmos 1271 Rocket 3.7 19:22:59 10° SSW 19:26:40 50° WNW 19:30:25 10° N
USA 81 4.0 19:21:35 10° N 19:26:52 67° E 19:32:07 10° SSE
Cosmos 2150 Rocket 4.2 19:22:38 10° NNW 19:27:59 82° WSW 19:33:24 10° SSE
COSMO-SKYMED 1 3.7 19:26:14 10° N 19:30:26 48° WNW 19:34:36 10° SSW
Cosmos 2181 Rocket 4.1 19:29:22 10° N 19:35:35 80° W 19:41:42 10° S
NOSS 3-1 (A) 4.1 19:28:51 10° NNW 19:36:24 70° NE 19:44:47 10° SE
Cosmos 1758 Rocket 4.2 19:32:16 10° NNW 19:36:44 62° W 19:41:09 10° S
Cosmos 841 Rocket 3.4 19:33:29 10° SSW 19:38:36 77° ESE 19:43:45 10° NNE
Cosmos 1340 Rocket 4.1 19:36:50 10° NNW 19:40:44 46° W 19:44:39 10° SSW
Cosmos 1726 Rocket 4.1 19:37:40 10° SSW 19:41:58 61° W 19:46:17 10° N
Cosmos 1937 Rocket 4.3 19:36:56 10° NNW 19:42:07 55° WSW 19:47:13 10° S
FREGAT/IRIS 2.5 19:39:50 10° SSE 19:42:51 90° SSW 19:45:54 10° NNW
Cosmos 389 Rocket 4.4 19:40:08 10° SW 19:43:21 34° WNW 19:46:33 10° N
Cosmos 1805 4.2 19:41:04 10° SSE 19:44:20 26° E 19:47:36 10° NNE
NOSS 3-1 (C) 4.2 19:37:25 10° NW 19:45:03 86° WSW 19:53:32 10° SSE
Cosmos 2084 3.9 19:44:22 10° SW 19:48:22 57° NW 19:52:13 10° NNE
Cosmos 2074 Rocket 3.9 19:43:33 10° S 19:49:41 70° E 19:55:52 10° NNE
CZ-2D R/B 3.7 19:47:59 13° SE 19:51:08 40° ENE 19:54:43 10° N
Resurs 1-3 4.2 19:50:43 16° SE 19:53:41 35° ENE 19:57:41 10° N
Cosmos 1943 Rocket 4.1 19:49:11 10° NW 19:54:03 31° WSW 19:58:57 10° SSW
Cosmos 540 Rocket 3.5 19:50:36 10° S 19:55:33 54° ESE 20:00:32 10° NNE
Cosmos 1763 Rocket 4.3 19:52:57 10° SW 19:57:56 55° WNW 20:03:03 10° NNE
HJ-1C 3.3 19:57:02 10° SSE 20:00:23 88° WSW 20:03:45 10° NNW
Meteor 1-24 Rocket 3.8 19:54:22 10° N 20:00:23 85° E 20:06:11 10° S
Cosmos 2228 4.1 20:03:28 10° SSW 20:07:41 48° WNW 20:11:54 10° N
Cosmos 1697 Rocket 4.3 20:07:34 10° N 20:11:16 17° NE 20:12:25 16° ENE
Cosmos 1980 Rocket 4.2 20:10:25 10° NNE 20:12:15 11° NE 20:13:21 11° NE
SJ-6B 3.4 20:09:11 10° S 20:13:08 58° W 20:17:01 10° NNW
Cosmos 1953 3.0 20:17:35 35° ENE 20:17:35 35° ENE 20:20:50 10° NNE
Resurs 01 Rocket 1.5 20:14:19 20° SSE 20:17:17 67° ENE 20:21:42 10° N
Nadezhda 3 Rocket 4.0 20:11:29 10° N 20:17:44 60° E 20:23:05 14° SSE
GP-B 3.0 20:15:47 10° N 20:20:13 62° E 20:23:34 17° SSE
Cosmos 1812 Rocket 3.4 20:17:00 10° S 20:21:26 75° E 20:25:55 10° NNE
Meteor 2-8 Rocket 4.4 20:15:47 10° N 20:21:57 89° W 20:28:02 10° S
H-2A R/B 4.4 20:21:46 10° SSW 20:25:11 34° W 20:28:39 10° NNW
Cosmos 2184 Rocket 4.5 20:21:16 10° SSW 20:27:30 64° W 20:33:51 10° N
Spot 2 Rocket 3.4 20:24:52 23° SSE 20:28:05 75° ENE 20:33:07 10° N
BREEZE-M DEB (TANK) 3.4 20:31:53 10° NW 20:32:50 20° NNW 20:32:50 20° NNW
USA 186 3.8 20:36:34 15° NNW 20:36:34 15° NNW 20:37:05 10° NNW
Meteor 2-19 Rocket 4.4 20:29:00 10° S 20:35:03 89° W 20:41:09 10° N
Cosmos 292 Rocket 3.7 20:34:38 10° S 20:39:25 63° ESE 20:44:14 10° NNE
Cosmos 1295 Rocket 4.4 20:37:06 20° SSE 20:41:18 57° E 20:47:14 10° NNE
Milstar 3 Cent rocket 3.9 20:40:16 10° SSW 20:42:10 14° S 20:42:10 14° S
YAOGAN 6 4.2 20:46:00 26° NNE 20:46:00 26° NNE 20:47:48 10° N
COSMOS 2406 4.0 20:40:19 10° SW 20:45:53 52° WNW 20:51:30 10° NNE
Cosmos 783 Rocket 4.3 20:41:21 10° SSW 20:46:33 83° ESE 20:51:47 10° NNE
Okean 3 Rocket 3.6 20:42:47 10° N 20:46:57 63° NE 20:46:57 63° NE
MOS 1-B Rocket 4.0 20:43:09 16° S 20:48:07 79° WSW 20:53:49 10° NNW
Cosmos 1809 Rocket 4.5 20:46:49 44° SE 20:48:13 53° E 20:54:09 10° NNE
Helios 1A 4.4 20:50:31 26° NNE 20:50:31 26° NNE 20:52:45 10° N
ISS -1.6 20:45:58 10° SW 20:47:02 19° SW 20:47:02 19° SW
ERS-1 Rocket 4.2 20:52:01 26° NE 20:52:01 26° NE 20:55:05 10° N
SL-8 Rocket 4.1 20:50:55 49° E 20:51:03 49° E 20:56:56 10° NNE
Cosmos 1125 Rocket 4.4 20:48:26 10° NNW 20:53:30 47° WSW 20:57:04 19° S
Cosmos 1674 3.3 20:55:04 10° NNW 20:58:04 52° NW 20:58:04 52° NW
BREEZE-M DEB (TANK) 2.8 20:49:20 10° WSW 20:58:53 89° SSE 20:59:22 71° ENE
Cosmos 2369 3.7 20:53:21 10° NNW 20:58:58 62° ENE 20:59:14 61° ENE
Envisat 3.4 20:57:59 29° S 21:00:30 60° W 21:05:33 10° NNW
Meteor 1-21 Rocket 4.2 20:54:57 10° NNW 21:00:42 83° W 21:02:33 45° S
Cosmos 1758 4.0 20:59:36 32° SW 21:01:07 53° W 21:05:03 10° N
Meteor 2-15 4.3 20:59:25 10° N 21:05:29 69° E 21:05:56 66° ESE
Cosmos 1939 Rocket 4.0 21:14:51 42° NW 21:14:51 42° NW 21:17:48 10° NNW
Meteor 2-21 Rocket 4.5 21:15:52 62° NE 21:15:52 62° NE 21:21:15 10° NNE
H-2A R/B 3.9 21:18:39 19° NNE 21:18:39 19° NNE 21:20:27 10° N
ATLAS 2AS CENTAUR R/B 2.9 21:10:33 10° NNW 21:18:34 65° NE 21:19:38 59° E
Cosmos 2278 3.9 21:27:55 10° NNW 21:33:05 69° WNW 21:33:05 69° WNW
Cosmos 2322 Rocket 4.3 21:42:25 10° N 21:44:25 16° NNE 21:44:25 16° NNE
Cosmos 1697 Rocket 3.6 21:50:18 10° NNW 21:54:09 45° NNW 21:54:09 45° NNW
Cosmos 1980 Rocket 3.5 21:51:54 10° NNW 21:55:07 34° N 21:55:07 34° N
FALCON 9 R/B 4.1 21:53:46 10° WSW 21:55:15 21° SW 21:55:15 21° SW
SL-16 R/B 4.3 22:19:10 10° N 22:21:08 20° N 22:21:08 20° N
CZ-3A R/B 4.2 22:32:41 10° WNW 22:48:58 61° N 22:48:58 61° N
ATLAS 2AS CENTAUR R/B 4.4 23:02:23 10° NW 23:07:05 27° W 23:07:05 27° W
